Year,Month,Day,Hour,Minute,Value (Times are PST for temperature in C)
2012,07,07,00,00,15.00
2012,07,07,00,01,15.00
2012,07,07,00,02,14.90
2012,07,07,00,03,14.90
2012,07,07,00,04,14.80
2012,07,07,00,05,14.80
2012,07,07,00,06,14.80
2012,07,07,00,07,14.80
2012,07,07,00,08,14.80
2012,07,07,00,09,14.80
2012,07,07,00,10,14.70
2012,07,07,00,11,14.70
2012,07,07,00,12,14.70
2012,07,07,00,13,14.70
2012,07,07,00,14,14.70
2012,07,07,00,15,14.70
2012,07,07,00,16,14.70
2012,07,07,00,17,14.70
2012,07,07,00,18,14.70
2012,07,07,00,19,14.70
2012,07,07,00,20,14.70
2012,07,07,00,21,14.70
2012,07,07,00,22,14.80
2012,07,07,00,23,14.80
2012,07,07,00,24,14.80
2012,07,07,00,25,14.80
2012,07,07,00,26,14.80
2012,07,07,00,27,14.90
2012,07,07,00,28,14.90
2012,07,07,00,29,14.90
2012,07,07,00,30,14.90
2012,07,07,00,31,14.90
2012,07,07,00,32,14.90
2012,07,07,00,33,14.90
2012,07,07,00,34,14.90
2012,07,07,00,35,14.90
2012,07,07,00,36,14.90
2012,07,07,00,37,14.90
2012,07,07,00,38,15.00
2012,07,07,00,39,15.00
2012,07,07,00,40,15.00
2012,07,07,00,41,15.00
2012,07,07,00,42,15.00
2012,07,07,00,43,15.00
2012,07,07,00,44,15.00
2012,07,07,00,45,15.00
2012,07,07,00,46,15.00
2012,07,07,00,47,15.00
2012,07,07,00,48,15.00
2012,07,07,00,49,15.00
2012,07,07,00,50,15.00
2012,07,07,00,51,15.00
2012,07,07,00,52,15.00
2012,07,07,00,53,15.00
2012,07,07,00,54,15.00
2012,07,07,00,55,15.00
2012,07,07,00,56,15.00
2012,07,07,00,57,14.90
2012,07,07,00,58,14.90
2012,07,07,00,59,14.90
2012,07,07,01,00,14.90
2012,07,07,01,01,14.90
2012,07,07,01,02,14.90
2012,07,07,01,03,14.90
2012,07,07,01,04,14.90
2012,07,07,01,05,15.00
2012,07,07,01,06,15.00
2012,07,07,01,07,15.00
2012,07,07,01,08,15.00
2012,07,07,01,09,15.00
2012,07,07,01,10,15.00
2012,07,07,01,11,15.00
2012,07,07,01,12,15.00
2012,07,07,01,13,15.00
2012,07,07,01,14,15.00
2012,07,07,01,15,15.00
2012,07,07,01,16,15.00
2012,07,07,01,17,15.00
2012,07,07,01,18,14.90
2012,07,07,01,19,14.90
2012,07,07,01,20,14.90
2012,07,07,01,21,14.90
2012,07,07,01,22,15.00
2012,07,07,01,23,14.90
2012,07,07,01,24,14.90
2012,07,07,01,25,14.90
2012,07,07,01,26,14.90
2012,07,07,01,27,14.90
2012,07,07,01,28,14.90
2012,07,07,01,29,14.90
2012,07,07,01,30,14.90
2012,07,07,01,31,14.90
2012,07,07,01,32,14.90
2012,07,07,01,33,14.90
2012,07,07,01,34,14.90
2012,07,07,01,35,14.90
2012,07,07,01,36,14.90
2012,07,07,01,37,14.90
2012,07,07,01,38,14.80
2012,07,07,01,39,14.80
2012,07,07,01,40,14.80
2012,07,07,01,41,14.80
2012,07,07,01,42,14.80
2012,07,07,01,43,14.80
2012,07,07,01,44,14.80
2012,07,07,01,45,14.80
2012,07,07,01,46,14.80
2012,07,07,01,47,14.80
2012,07,07,01,48,14.70
2012,07,07,01,49,14.70
2012,07,07,01,50,14.70
2012,07,07,01,51,14.70
2012,07,07,01,52,14.70
2012,07,07,01,53,14.60
2012,07,07,01,54,14.60
2012,07,07,01,55,14.60
2012,07,07,01,56,14.50
2012,07,07,01,57,14.50
2012,07,07,01,58,14.50
2012,07,07,01,59,14.50
2012,07,07,02,00,14.50
2012,07,07,02,01,14.50
2012,07,07,02,02,14.40
2012,07,07,02,03,14.40
2012,07,07,02,04,14.40
2012,07,07,02,05,14.40
2012,07,07,02,06,14.40
2012,07,07,02,07,14.40
2012,07,07,02,08,14.40
2012,07,07,02,09,14.30
2012,07,07,02,10,14.30
2012,07,07,02,11,14.30
2012,07,07,02,12,14.30
2012,07,07,02,13,14.30
2012,07,07,02,14,14.30
2012,07,07,02,15,14.20
2012,07,07,02,16,14.20
2012,07,07,02,17,14.20
2012,07,07,02,18,14.20
2012,07,07,02,19,14.20
2012,07,07,02,20,14.10
2012,07,07,02,21,14.00
2012,07,07,02,22,14.00
2012,07,07,02,23,13.90
2012,07,07,02,24,13.90
2012,07,07,02,25,13.90
2012,07,07,02,26,13.80
2012,07,07,02,27,13.80
2012,07,07,02,28,13.80
2012,07,07,02,29,13.70
2012,07,07,02,30,13.70
2012,07,07,02,31,13.70
2012,07,07,02,32,13.70
2012,07,07,02,33,13.60
2012,07,07,02,34,13.60
2012,07,07,02,35,13.60
2012,07,07,02,36,13.60
2012,07,07,02,37,13.50
2012,07,07,02,38,13.50
2012,07,07,02,39,13.50
2012,07,07,02,40,13.50
2012,07,07,02,41,13.40
2012,07,07,02,42,13.40
2012,07,07,02,43,13.40
2012,07,07,02,44,13.40
2012,07,07,02,45,13.40
2012,07,07,02,46,13.30
2012,07,07,02,47,13.30
2012,07,07,02,48,13.30
2012,07,07,02,49,13.30
2012,07,07,02,50,13.40
2012,07,07,02,51,13.40
2012,07,07,02,52,13.40
2012,07,07,02,53,13.50
2012,07,07,02,54,13.50
2012,07,07,02,55,13.60
2012,07,07,02,56,13.60
2012,07,07,02,57,13.60
2012,07,07,02,58,13.70
2012,07,07,02,59,13.70
2012,07,07,03,00,13.70
2012,07,07,03,01,13.70
2012,07,07,03,02,13.70
2012,07,07,03,03,13.70
2012,07,07,03,04,13.70
2012,07,07,03,05,13.60
2012,07,07,03,06,13.60
2012,07,07,03,07,13.60
2012,07,07,03,08,13.60
2012,07,07,03,09,13.60
2012,07,07,03,10,13.60
2012,07,07,03,11,13.50
2012,07,07,03,12,13.50
2012,07,07,03,13,13.50
2012,07,07,03,14,13.50
2012,07,07,03,15,13.40
2012,07,07,03,16,13.40
2012,07,07,03,17,13.40
2012,07,07,03,18,13.30
2012,07,07,03,19,13.30
2012,07,07,03,20,13.30
2012,07,07,03,21,13.30
2012,07,07,03,22,13.30
2012,07,07,03,23,13.30
2012,07,07,03,24,13.30
2012,07,07,03,25,13.30
2012,07,07,03,26,13.30
2012,07,07,03,27,13.20
2012,07,07,03,28,13.20
2012,07,07,03,29,13.20
2012,07,07,03,30,13.20
2012,07,07,03,31,13.20
2012,07,07,03,32,13.20
2012,07,07,03,33,13.20
2012,07,07,03,34,13.10
2012,07,07,03,35,13.10
2012,07,07,03,36,13.10
2012,07,07,03,37,13.10
2012,07,07,03,38,13.10
2012,07,07,03,39,13.00
2012,07,07,03,40,13.00
2012,07,07,03,41,13.00
2012,07,07,03,42,12.90
2012,07,07,03,43,12.90
2012,07,07,03,44,12.90
2012,07,07,03,45,12.90
2012,07,07,03,46,12.90
2012,07,07,03,47,12.90
2012,07,07,03,48,12.90
2012,07,07,03,49,12.90
2012,07,07,03,50,12.90
2012,07,07,03,51,12.90
2012,07,07,03,52,12.80
2012,07,07,03,53,12.80
2012,07,07,03,54,12.80
2012,07,07,03,55,12.80
2012,07,07,03,56,12.80
2012,07,07,03,57,12.80
2012,07,07,03,58,12.70
2012,07,07,03,59,12.70
2012,07,07,04,00,12.70
2012,07,07,04,01,12.70
2012,07,07,04,02,12.70
2012,07,07,04,03,12.70
2012,07,07,04,04,12.60
2012,07,07,04,05,12.60
2012,07,07,04,06,12.60
2012,07,07,04,07,12.60
2012,07,07,04,08,12.60
2012,07,07,04,09,12.60
2012,07,07,04,10,12.50
2012,07,07,04,11,12.50
2012,07,07,04,12,12.50
2012,07,07,04,13,12.50
2012,07,07,04,14,12.50
2012,07,07,04,15,12.50
2012,07,07,04,16,12.40
2012,07,07,04,17,12.40
2012,07,07,04,18,12.40
2012,07,07,04,19,12.40
2012,07,07,04,20,12.40
2012,07,07,04,21,12.40
2012,07,07,04,22,12.40
2012,07,07,04,23,12.40
2012,07,07,04,24,12.30
2012,07,07,04,25,12.30
2012,07,07,04,26,12.30
2012,07,07,04,27,12.30
2012,07,07,04,28,12.30
2012,07,07,04,29,12.30
2012,07,07,04,30,12.30
2012,07,07,04,31,12.20
2012,07,07,04,32,12.20
2012,07,07,04,33,12.20
2012,07,07,04,34,12.20
2012,07,07,04,35,12.20
2012,07,07,04,36,12.20
2012,07,07,04,37,12.20
2012,07,07,04,38,12.20
2012,07,07,04,39,12.10
2012,07,07,04,40,12.10
2012,07,07,04,41,12.10
2012,07,07,04,42,12.10
2012,07,07,04,43,12.10
2012,07,07,04,44,12.10
2012,07,07,04,45,12.10
2012,07,07,04,46,12.10
2012,07,07,04,47,12.10
2012,07,07,04,48,12.10
2012,07,07,04,49,12.00
2012,07,07,04,50,12.00
2012,07,07,04,51,12.00
2012,07,07,04,52,12.00
2012,07,07,04,53,12.00
2012,07,07,04,54,11.90
2012,07,07,04,55,11.90
2012,07,07,04,56,11.90
2012,07,07,04,57,11.90
2012,07,07,04,58,11.90
2012,07,07,04,59,11.90
2012,07,07,05,00,11.90
2012,07,07,05,01,11.80
2012,07,07,05,02,11.80
2012,07,07,05,03,11.80
2012,07,07,05,04,11.80
2012,07,07,05,05,11.80
2012,07,07,05,06,11.80
2012,07,07,05,07,11.80
2012,07,07,05,08,11.80
2012,07,07,05,09,11.80
2012,07,07,05,10,11.70
2012,07,07,05,11,11.70
2012,07,07,05,12,11.70
2012,07,07,05,13,11.70
2012,07,07,05,14,11.70
2012,07,07,05,15,11.70
2012,07,07,05,16,11.60
2012,07,07,05,17,11.60
2012,07,07,05,18,11.60
2012,07,07,05,19,11.60
2012,07,07,05,20,11.60
2012,07,07,05,21,11.60
2012,07,07,05,22,11.60
2012,07,07,05,23,11.50
2012,07,07,05,24,11.50
2012,07,07,05,25,11.50
2012,07,07,05,26,11.50
2012,07,07,05,27,11.50
2012,07,07,05,28,11.50
2012,07,07,05,29,11.50
2012,07,07,05,30,11.50
2012,07,07,05,31,11.40
2012,07,07,05,32,11.40
2012,07,07,05,33,11.40
2012,07,07,05,34,11.40
2012,07,07,05,35,11.40
2012,07,07,05,36,11.40
2012,07,07,05,37,11.40
2012,07,07,05,38,11.40
2012,07,07,05,39,11.40
2012,07,07,05,40,11.40
2012,07,07,05,41,11.30
2012,07,07,05,42,11.30
2012,07,07,05,43,11.30
2012,07,07,05,44,11.30
2012,07,07,05,45,11.30
2012,07,07,05,46,11.30
2012,07,07,05,47,11.30
2012,07,07,05,48,11.30
2012,07,07,05,49,11.30
2012,07,07,05,50,11.30
2012,07,07,05,51,11.30
2012,07,07,05,52,11.40
2012,07,07,05,53,11.30
2012,07,07,05,54,11.30
2012,07,07,05,55,11.40
2012,07,07,05,56,11.40
2012,07,07,05,57,11.40
2012,07,07,05,58,11.40
2012,07,07,05,59,11.40
2012,07,07,06,00,11.40
2012,07,07,06,01,11.40
2012,07,07,06,02,11.40
2012,07,07,06,03,11.40
2012,07,07,06,04,11.40
2012,07,07,06,05,11.40
2012,07,07,06,06,11.40
2012,07,07,06,07,11.40
2012,07,07,06,08,11.40
2012,07,07,06,09,11.40
2012,07,07,06,10,11.40
2012,07,07,06,11,11.40
2012,07,07,06,12,11.40
2012,07,07,06,13,11.40
2012,07,07,06,14,11.40
2012,07,07,06,15,11.40
2012,07,07,06,16,11.40
2012,07,07,06,17,11.40
2012,07,07,06,18,11.40
2012,07,07,06,19,11.40
2012,07,07,06,20,11.40
2012,07,07,06,21,11.40
2012,07,07,06,22,11.40
2012,07,07,06,23,11.50
2012,07,07,06,24,11.50
2012,07,07,06,25,11.50
2012,07,07,06,26,11.50
2012,07,07,06,27,11.50
2012,07,07,06,28,11.60
2012,07,07,06,29,11.60
2012,07,07,06,30,11.60
2012,07,07,06,31,11.60
2012,07,07,06,32,11.60
2012,07,07,06,33,11.60
2012,07,07,06,34,11.70
2012,07,07,06,35,11.70
2012,07,07,06,36,11.70
2012,07,07,06,37,11.70
2012,07,07,06,38,11.70
2012,07,07,06,39,11.80
2012,07,07,06,40,11.80
2012,07,07,06,41,11.80
2012,07,07,06,42,11.80
2012,07,07,06,43,11.80
2012,07,07,06,44,11.90
2012,07,07,06,45,11.90
2012,07,07,06,46,11.90
2012,07,07,06,47,11.90
2012,07,07,06,48,11.90
2012,07,07,06,49,12.00
2012,07,07,06,50,12.00
2012,07,07,06,51,12.10
2012,07,07,06,52,12.10
2012,07,07,06,53,12.20
2012,07,07,06,54,12.20
2012,07,07,06,55,12.20
2012,07,07,06,56,12.20
2012,07,07,06,57,12.30
2012,07,07,06,58,12.30
2012,07,07,06,59,12.30
2012,07,07,07,00,12.30
2012,07,07,07,01,12.40
2012,07,07,07,02,12.40
2012,07,07,07,03,12.40
2012,07,07,07,04,12.50
2012,07,07,07,05,12.50
2012,07,07,07,06,12.50
2012,07,07,07,07,12.60
2012,07,07,07,08,12.60
2012,07,07,07,09,12.60
2012,07,07,07,10,12.60
2012,07,07,07,11,12.70
2012,07,07,07,12,12.70
2012,07,07,07,13,12.70
2012,07,07,07,14,12.80
2012,07,07,07,15,12.80
2012,07,07,07,16,12.80
2012,07,07,07,17,12.90
2012,07,07,07,18,12.90
2012,07,07,07,19,12.90
2012,07,07,07,20,12.90
2012,07,07,07,21,13.00
2012,07,07,07,22,13.00
2012,07,07,07,23,13.10
2012,07,07,07,24,13.10
2012,07,07,07,25,13.10
2012,07,07,07,26,13.10
2012,07,07,07,27,13.20
2012,07,07,07,28,13.20
2012,07,07,07,29,13.20
2012,07,07,07,30,13.20
2012,07,07,07,31,13.30
2012,07,07,07,32,13.30
2012,07,07,07,33,13.30
2012,07,07,07,34,13.40
2012,07,07,07,35,13.40
2012,07,07,07,36,13.50
2012,07,07,07,37,13.50
2012,07,07,07,38,13.60
2012,07,07,07,39,13.60
2012,07,07,07,40,13.70
2012,07,07,07,41,13.70
2012,07,07,07,42,13.80
2012,07,07,07,43,13.80
2012,07,07,07,44,13.80
2012,07,07,07,45,13.80
2012,07,07,07,46,13.90
2012,07,07,07,47,13.90
2012,07,07,07,48,13.90
2012,07,07,07,49,14.00
2012,07,07,07,50,14.00
2012,07,07,07,51,14.10
2012,07,07,07,52,14.10
2012,07,07,07,53,14.10
2012,07,07,07,54,14.20
2012,07,07,07,55,14.20
2012,07,07,07,56,14.20
2012,07,07,07,57,14.30
2012,07,07,07,58,14.30
2012,07,07,07,59,14.30
2012,07,07,08,00,14.40
2012,07,07,08,01,14.40
2012,07,07,08,02,14.50
2012,07,07,08,03,14.50
2012,07,07,08,04,14.60
2012,07,07,08,05,14.60
2012,07,07,08,06,14.70
2012,07,07,08,07,14.70
2012,07,07,08,08,14.80
2012,07,07,08,09,14.90
2012,07,07,08,10,15.00
2012,07,07,08,11,15.00
2012,07,07,08,12,15.00
2012,07,07,08,13,15.00
2012,07,07,08,14,15.20
2012,07,07,08,15,15.20
2012,07,07,08,16,15.30
2012,07,07,08,17,15.40
2012,07,07,08,18,15.40
2012,07,07,08,19,15.50
2012,07,07,08,20,15.50
2012,07,07,08,21,15.60
2012,07,07,08,22,15.60
2012,07,07,08,23,15.70
2012,07,07,08,24,15.70
2012,07,07,08,25,15.70
2012,07,07,08,26,15.80
2012,07,07,08,27,15.80
2012,07,07,08,28,15.90
2012,07,07,08,29,15.90
2012,07,07,08,30,15.90
2012,07,07,08,31,15.90
2012,07,07,08,32,15.90
2012,07,07,08,33,15.90
2012,07,07,08,34,15.90
2012,07,07,08,35,16.00
2012,07,07,08,36,16.00
2012,07,07,08,37,16.00
2012,07,07,08,38,16.10
2012,07,07,08,39,16.10
2012,07,07,08,40,16.10
2012,07,07,08,41,16.20
2012,07,07,08,42,16.20
2012,07,07,08,43,16.20
2012,07,07,08,44,16.30
2012,07,07,08,45,16.30
2012,07,07,08,46,16.40
2012,07,07,08,47,16.40
2012,07,07,08,48,16.40
2012,07,07,08,49,16.40
2012,07,07,08,50,16.50
2012,07,07,08,51,16.50
2012,07,07,08,52,16.50
2012,07,07,08,53,16.60
2012,07,07,08,54,16.60
2012,07,07,08,55,16.60
2012,07,07,08,56,16.70
2012,07,07,08,57,16.70
2012,07,07,08,58,16.70
2012,07,07,08,59,16.70
2012,07,07,09,00,16.80
2012,07,07,09,01,16.80
2012,07,07,09,02,16.80
2012,07,07,09,03,16.90
2012,07,07,09,04,16.90
2012,07,07,09,05,17.00
2012,07,07,09,06,17.00
2012,07,07,09,07,17.00
2012,07,07,09,08,17.00
2012,07,07,09,09,17.10
2012,07,07,09,10,17.10
2012,07,07,09,11,17.10
2012,07,07,09,12,17.10
2012,07,07,09,13,17.20
2012,07,07,09,14,17.20
2012,07,07,09,15,17.20
2012,07,07,09,16,17.20
2012,07,07,09,17,17.30
2012,07,07,09,18,17.30
2012,07,07,09,19,17.30
2012,07,07,09,20,17.20
2012,07,07,09,21,17.10
2012,07,07,09,22,17.10
2012,07,07,09,23,17.00
2012,07,07,09,24,16.90
2012,07,07,09,25,16.80
2012,07,07,09,26,16.80
2012,07,07,09,27,16.70
2012,07,07,09,28,16.70
2012,07,07,09,29,16.70
2012,07,07,09,30,16.60
2012,07,07,09,31,16.60
2012,07,07,09,32,16.60
2012,07,07,09,33,16.60
2012,07,07,09,34,16.60
2012,07,07,09,35,16.70
2012,07,07,09,36,16.70
2012,07,07,09,37,16.80
2012,07,07,09,38,16.90
2012,07,07,09,39,16.90
2012,07,07,09,40,17.00
2012,07,07,09,41,17.00
2012,07,07,09,42,17.10
2012,07,07,09,43,17.20
2012,07,07,09,44,17.20
2012,07,07,09,45,17.30
2012,07,07,09,46,17.40
2012,07,07,09,47,17.50
2012,07,07,09,48,17.60
2012,07,07,09,49,17.70
2012,07,07,09,50,17.80
2012,07,07,09,51,17.90
2012,07,07,09,52,17.90
2012,07,07,09,53,17.90
2012,07,07,09,54,17.90
2012,07,07,09,55,17.90
2012,07,07,09,56,17.90
2012,07,07,09,57,17.90
2012,07,07,09,58,17.90
2012,07,07,09,59,17.90
2012,07,07,10,00,17.90
2012,07,07,10,01,17.90
2012,07,07,10,02,18.00
2012,07,07,10,03,18.00
2012,07,07,10,04,18.00
2012,07,07,10,05,18.10
2012,07,07,10,06,18.20
2012,07,07,10,07,18.30
2012,07,07,10,08,18.30
2012,07,07,10,09,18.40
2012,07,07,10,10,18.50
2012,07,07,10,11,18.60
2012,07,07,10,12,18.70
2012,07,07,10,13,18.80
2012,07,07,10,14,18.90
2012,07,07,10,15,19.00
2012,07,07,10,16,19.00
2012,07,07,10,17,19.10
2012,07,07,10,18,19.00
2012,07,07,10,19,18.90
2012,07,07,10,20,18.80
2012,07,07,10,21,18.70
2012,07,07,10,22,18.70
2012,07,07,10,23,18.70
2012,07,07,10,24,18.70
2012,07,07,10,25,18.70
2012,07,07,10,26,18.60
2012,07,07,10,27,18.60
2012,07,07,10,28,18.60
2012,07,07,10,29,18.60
2012,07,07,10,30,18.60
2012,07,07,10,31,18.60
2012,07,07,10,32,18.60
2012,07,07,10,33,18.70
2012,07,07,10,34,18.60
2012,07,07,10,35,18.60
2012,07,07,10,36,18.60
2012,07,07,10,37,18.60
2012,07,07,10,38,18.50
2012,07,07,10,39,18.60
2012,07,07,10,40,18.50
2012,07,07,10,41,18.60
2012,07,07,10,42,18.60
2012,07,07,10,43,18.60
2012,07,07,10,44,18.60
2012,07,07,10,45,18.60
2012,07,07,10,46,18.60
2012,07,07,10,47,18.50
2012,07,07,10,48,18.50
2012,07,07,10,49,18.50
2012,07,07,10,50,18.60
2012,07,07,10,51,18.60
2012,07,07,10,52,18.60
2012,07,07,10,53,18.60
2012,07,07,10,54,18.60
2012,07,07,10,55,18.50
2012,07,07,10,56,18.50
2012,07,07,10,57,18.40
2012,07,07,10,58,18.30
2012,07,07,10,59,18.30
2012,07,07,11,00,18.20
2012,07,07,11,01,18.10
2012,07,07,11,02,18.00
2012,07,07,11,03,17.90
2012,07,07,11,04,17.90
2012,07,07,11,05,18.00
2012,07,07,11,06,18.00
2012,07,07,11,07,17.90
2012,07,07,11,08,17.90
2012,07,07,11,09,17.90
2012,07,07,11,10,17.90
2012,07,07,11,11,17.90
2012,07,07,11,12,18.00
2012,07,07,11,13,18.10
2012,07,07,11,14,18.10
2012,07,07,11,15,18.00
2012,07,07,11,16,18.00
2012,07,07,11,17,17.90
2012,07,07,11,18,17.90
2012,07,07,11,19,17.90
2012,07,07,11,20,17.90
2012,07,07,11,21,17.90
2012,07,07,11,22,17.90
2012,07,07,11,23,18.00
2012,07,07,11,24,18.00
2012,07,07,11,25,18.10
2012,07,07,11,26,18.10
2012,07,07,11,27,18.00
2012,07,07,11,28,18.00
2012,07,07,11,29,17.90
2012,07,07,11,30,17.80
2012,07,07,11,31,17.80
2012,07,07,11,32,17.80
2012,07,07,11,33,17.70
2012,07,07,11,34,17.70
2012,07,07,11,35,17.70
2012,07,07,11,36,17.50
2012,07,07,11,37,17.40
2012,07,07,11,38,17.30
2012,07,07,11,39,17.30
2012,07,07,11,40,17.30
2012,07,07,11,41,17.30
2012,07,07,11,42,17.40
2012,07,07,11,43,17.40
2012,07,07,11,44,17.50
2012,07,07,11,45,17.50
2012,07,07,11,46,17.50
2012,07,07,11,47,17.50
2012,07,07,11,48,17.40
2012,07,07,11,49,17.20
2012,07,07,11,50,17.10
2012,07,07,11,51,17.00
2012,07,07,11,52,16.90
2012,07,07,11,53,16.90
2012,07,07,11,54,17.00
2012,07,07,11,55,17.10
2012,07,07,11,56,17.30
2012,07,07,11,57,17.40
2012,07,07,11,58,17.50
2012,07,07,11,59,17.70
2012,07,07,12,00,17.80
2012,07,07,12,01,17.80
2012,07,07,12,02,17.90
2012,07,07,12,03,17.90
2012,07,07,12,04,18.00
2012,07,07,12,05,18.00
2012,07,07,12,06,18.10
2012,07,07,12,07,18.20
2012,07,07,12,08,18.20
2012,07,07,12,09,18.30
2012,07,07,12,10,18.40
2012,07,07,12,11,18.40
2012,07,07,12,12,18.50
2012,07,07,12,13,18.50
2012,07,07,12,14,18.60
2012,07,07,12,15,18.60
2012,07,07,12,16,18.60
2012,07,07,12,17,18.60
2012,07,07,12,18,18.60
2012,07,07,12,19,18.60
2012,07,07,12,20,18.70
2012,07,07,12,21,18.70
2012,07,07,12,22,18.70
2012,07,07,12,23,18.70
2012,07,07,12,24,18.70
2012,07,07,12,25,18.70
2012,07,07,12,26,18.70
2012,07,07,12,27,18.60
2012,07,07,12,28,18.60
2012,07,07,12,29,18.70
2012,07,07,12,30,18.80
2012,07,07,12,31,18.80
2012,07,07,12,32,18.70
2012,07,07,12,33,18.80
2012,07,07,12,34,18.90
2012,07,07,12,35,18.90
2012,07,07,12,36,19.00
2012,07,07,12,37,19.10
2012,07,07,12,38,19.20
2012,07,07,12,39,19.20
2012,07,07,12,40,19.30
2012,07,07,12,41,19.40
2012,07,07,12,42,19.50
2012,07,07,12,43,19.60
2012,07,07,12,44,19.70
2012,07,07,12,45,19.70
2012,07,07,12,46,19.70
2012,07,07,12,47,19.70
2012,07,07,12,48,19.60
2012,07,07,12,49,19.60
2012,07,07,12,50,19.60
2012,07,07,12,51,19.60
2012,07,07,12,52,19.60
2012,07,07,12,53,19.50
2012,07,07,12,54,19.40
2012,07,07,12,55,19.30
2012,07,07,12,56,19.30
2012,07,07,12,57,19.30
2012,07,07,12,58,19.30
2012,07,07,12,59,19.30
2012,07,07,13,00,19.40
2012,07,07,13,01,19.40
2012,07,07,13,02,19.40
2012,07,07,13,03,19.40
2012,07,07,13,04,19.30
2012,07,07,13,05,19.20
2012,07,07,13,06,19.10
2012,07,07,13,07,19.10
2012,07,07,13,08,19.10
2012,07,07,13,09,19.10
2012,07,07,13,10,19.20
2012,07,07,13,11,19.20
2012,07,07,13,12,19.20
2012,07,07,13,13,19.20
2012,07,07,13,14,19.10
2012,07,07,13,15,19.10
2012,07,07,13,16,19.20
2012,07,07,13,17,19.20
2012,07,07,13,18,19.20
2012,07,07,13,19,19.20
2012,07,07,13,20,19.30
2012,07,07,13,21,19.30
2012,07,07,13,22,19.30
2012,07,07,13,23,19.30
2012,07,07,13,24,19.40
2012,07,07,13,25,19.40
2012,07,07,13,26,19.40
2012,07,07,13,27,19.50
2012,07,07,13,28,19.60
2012,07,07,13,29,19.70
2012,07,07,13,30,19.70
2012,07,07,13,31,19.80
2012,07,07,13,32,19.90
2012,07,07,13,33,19.90
2012,07,07,13,34,20.00
2012,07,07,13,35,20.00
2012,07,07,13,36,20.10
2012,07,07,13,37,20.10
2012,07,07,13,38,20.10
2012,07,07,13,39,20.10
2012,07,07,13,40,20.10
2012,07,07,13,41,20.10
2012,07,07,13,42,20.10
2012,07,07,13,43,20.10
2012,07,07,13,44,20.20
2012,07,07,13,45,20.30
2012,07,07,13,46,20.40
2012,07,07,13,47,20.50
2012,07,07,13,48,20.70
2012,07,07,13,49,20.90
2012,07,07,13,50,21.10
2012,07,07,13,51,21.30
2012,07,07,13,52,21.60
2012,07,07,13,53,21.80
2012,07,07,13,54,21.90
2012,07,07,13,55,22.10
2012,07,07,13,56,22.20
2012,07,07,13,57,22.30
2012,07,07,13,58,22.20
2012,07,07,13,59,22.00
2012,07,07,14,00,21.80
2012,07,07,14,01,21.60
2012,07,07,14,02,21.50
2012,07,07,14,03,21.40
2012,07,07,14,04,21.40
2012,07,07,14,05,21.40
2012,07,07,14,06,21.40
2012,07,07,14,07,21.40
2012,07,07,14,08,21.40
2012,07,07,14,09,21.30
2012,07,07,14,10,21.30
2012,07,07,14,11,21.20
2012,07,07,14,12,21.00
2012,07,07,14,13,20.90
2012,07,07,14,14,20.70
2012,07,07,14,15,20.60
2012,07,07,14,16,20.40
2012,07,07,14,17,20.40
2012,07,07,14,18,20.40
2012,07,07,14,19,20.50
2012,07,07,14,20,20.60
2012,07,07,14,21,20.80
2012,07,07,14,22,20.90
2012,07,07,14,23,20.90
2012,07,07,14,24,20.90
2012,07,07,14,25,20.90
2012,07,07,14,26,21.00
2012,07,07,14,27,21.10
2012,07,07,14,28,21.00
2012,07,07,14,29,20.90
2012,07,07,14,30,20.90
2012,07,07,14,31,20.70
2012,07,07,14,32,20.70
2012,07,07,14,33,20.60
2012,07,07,14,34,20.60
2012,07,07,14,35,20.50
2012,07,07,14,36,20.50
2012,07,07,14,37,20.60
2012,07,07,14,38,20.50
2012,07,07,14,39,20.50
2012,07,07,14,40,20.50
2012,07,07,14,41,20.50
2012,07,07,14,42,20.50
2012,07,07,14,43,20.50
2012,07,07,14,44,20.50
2012,07,07,14,45,20.60
2012,07,07,14,46,20.70
2012,07,07,14,47,20.90
2012,07,07,14,48,21.10
2012,07,07,14,49,21.20
2012,07,07,14,50,21.30
2012,07,07,14,51,21.40
2012,07,07,14,52,21.40
2012,07,07,14,53,21.50
2012,07,07,14,54,21.70
2012,07,07,14,55,21.80
2012,07,07,14,56,21.80
2012,07,07,14,57,21.70
2012,07,07,14,58,21.60
2012,07,07,14,59,21.50
2012,07,07,15,00,21.50
2012,07,07,15,01,21.50
2012,07,07,15,02,21.60
2012,07,07,15,03,21.70
2012,07,07,15,04,21.80
2012,07,07,15,05,21.80
2012,07,07,15,06,21.80
2012,07,07,15,07,21.80
2012,07,07,15,08,21.90
2012,07,07,15,09,21.90
2012,07,07,15,10,22.00
2012,07,07,15,11,22.10
2012,07,07,15,12,22.20
2012,07,07,15,13,22.20
2012,07,07,15,14,22.10
2012,07,07,15,15,22.00
2012,07,07,15,16,22.00
2012,07,07,15,17,22.00
2012,07,07,15,18,22.00
2012,07,07,15,19,22.10
2012,07,07,15,20,22.20
2012,07,07,15,21,22.30
2012,07,07,15,22,22.50
2012,07,07,15,23,22.50
2012,07,07,15,24,22.50
2012,07,07,15,25,22.60
2012,07,07,15,26,22.60
2012,07,07,15,27,22.70
2012,07,07,15,28,22.80
2012,07,07,15,29,22.80
2012,07,07,15,30,22.80
2012,07,07,15,31,22.70
2012,07,07,15,32,22.60
2012,07,07,15,33,22.60
2012,07,07,15,34,22.60
2012,07,07,15,35,22.70
2012,07,07,15,36,22.80
2012,07,07,15,37,22.90
2012,07,07,15,38,23.00
2012,07,07,15,39,23.10
2012,07,07,15,40,23.10
2012,07,07,15,41,23.20
2012,07,07,15,42,23.30
2012,07,07,15,43,23.40
2012,07,07,15,44,23.50
2012,07,07,15,45,23.60
2012,07,07,15,46,23.50
2012,07,07,15,47,23.50
2012,07,07,15,48,23.50
2012,07,07,15,49,23.40
2012,07,07,15,50,23.40
2012,07,07,15,51,23.40
2012,07,07,15,52,23.40
2012,07,07,15,53,23.50
2012,07,07,15,54,23.60
2012,07,07,15,55,23.60
2012,07,07,15,56,23.60
2012,07,07,15,57,23.60
2012,07,07,15,58,23.60
2012,07,07,15,59,23.60
2012,07,07,16,00,23.60
2012,07,07,16,01,23.60
2012,07,07,16,02,23.60
2012,07,07,16,03,23.50
2012,07,07,16,04,23.40
2012,07,07,16,05,23.30
2012,07,07,16,06,23.30
2012,07,07,16,07,23.20
2012,07,07,16,08,23.20
2012,07,07,16,09,23.20
2012,07,07,16,10,23.20
2012,07,07,16,11,23.20
2012,07,07,16,12,23.20
2012,07,07,16,13,23.20
2012,07,07,16,14,23.20
2012,07,07,16,15,23.20
2012,07,07,16,16,23.10
2012,07,07,16,17,23.10
2012,07,07,16,18,23.10
2012,07,07,16,19,23.10
2012,07,07,16,20,23.10
2012,07,07,16,21,23.20
2012,07,07,16,22,23.20
2012,07,07,16,23,23.30
2012,07,07,16,24,23.30
2012,07,07,16,25,23.40
2012,07,07,16,26,23.50
2012,07,07,16,27,23.60
2012,07,07,16,28,23.60
2012,07,07,16,29,23.80
2012,07,07,16,30,23.90
2012,07,07,16,31,23.90
2012,07,07,16,32,23.90
2012,07,07,16,33,23.90
2012,07,07,16,34,23.80
2012,07,07,16,35,23.70
2012,07,07,16,36,23.70
2012,07,07,16,37,23.60
2012,07,07,16,38,23.70
2012,07,07,16,39,23.70
2012,07,07,16,40,23.60
2012,07,07,16,41,23.60
2012,07,07,16,42,23.50
2012,07,07,16,43,23.50
2012,07,07,16,44,23.50
2012,07,07,16,45,23.40
2012,07,07,16,46,23.40
2012,07,07,16,47,23.40
2012,07,07,16,48,23.50
2012,07,07,16,49,23.50
2012,07,07,16,50,23.60
2012,07,07,16,51,23.60
2012,07,07,16,52,23.70
2012,07,07,16,53,23.60
2012,07,07,16,54,23.60
2012,07,07,16,55,23.60
2012,07,07,16,56,23.60
2012,07,07,16,57,23.60
2012,07,07,16,58,23.60
2012,07,07,16,59,23.60
2012,07,07,17,00,23.50
2012,07,07,17,01,23.50
2012,07,07,17,02,23.40
2012,07,07,17,03,23.40
2012,07,07,17,04,23.30
2012,07,07,17,05,23.20
2012,07,07,17,06,23.20
2012,07,07,17,07,23.20
2012,07,07,17,08,23.10
2012,07,07,17,09,23.10
2012,07,07,17,10,23.10
2012,07,07,17,11,23.10
2012,07,07,17,12,23.10
2012,07,07,17,13,23.10
2012,07,07,17,14,23.10
2012,07,07,17,15,23.10
2012,07,07,17,16,23.10
2012,07,07,17,17,23.20
2012,07,07,17,18,23.20
2012,07,07,17,19,23.20